SL-16 R/B, 23343

Orbit data source: Space-Track

SL-16 R/B, 23343 is space debris in SSO originally from a launch on Fri, 04 Nov 1994 UTC launched from the Tyuratam Missile And Space Complex (TTMTR). Debris objects in space refer to the collection of defunct objects orbiting the Earth. Examples of debris include non-operational satellites, rocket bodies, and fragments generated from explosions, collisions, or faulty payload assembly.

Loading next visibility...
Identifier
23343, 1994-074B
Orbit
SSO
Country
Flag of CISCIS
Related business
Manufacturer
Yuzhnoe
Mission
Spacecraft
Bus & Motor
11S772, Unknown motor
Mass
9,000 kg wet, 9,000 kg dry
Launch date (UTC)
1994-11-04 (31 years ago)
Launch vehicle
Unknown
Launch site
Tyuratam Missile And Space Complex (TTMTR)
Object type
Payload
Rocket body
Debris
Shape & HBR
Cyl, 5.2 m
Radar Cross Section
37.829 m², Large (>1 m²)

Expand to show TLE details & history
Last TLE update: 12 hours ago

TLE from 12 hours ago
0 SL-16 R/B
1 23343U 94074B   26034.09617211  .00000515  00000-0  75782-4 0  9995
2 23343  97.7151  66.3081 0006097 346.9402  76.9401 14.79364536682136
Epoch: 2026-02-03T02:18Z
TLE epoch observation values (Epoch: 2026-02-03T02:18:29.270Z)
Latitude
63.00087°
Longitude
-116.93027°
Altitude
641.202 km
Speed
7.544 km/s
True Right ascension
03h 23m 53s
True Declination
62° 51' 33"
Sunlit
Object was in daylight at epoch
Visualization orbit readout
Latitude
Unknown
Longitude
Unknown
Altitude
Unknown
Speed
Unknown
Apparent Right ascension
Unknown
Apparent Declination
Unknown
Sunlit
N/A
Visualization observer readout
Local Sidereal Time
16:01:59
Azimuth
Unknown
Elevation
Unknown
Doppler factor
Unknown
Orbital elements
Apogee altitude
632.636 km
Perigee altitude
624.092 km
Semi-major axis
7,006.501 km
Eccentricity
0.00061
Inclination
97.7151°
RAAN
66.3081°
Arg. of periapsis
346.9402°
True anomaly
77.00817°
Mean anomaly
76.9401°
Eccentric anomaly
76.97413°
Mean motion
3.70076 °/min
Orbital period
97.28 mins
BSTAR
0.000075782
Loading maneuver chart data...
Computing Atmospheric mass density...

Documentation

Showing up to 5 results
|